Weather in Vasknarva

Estonia     59°00′05″N   27°44′21″E
temp.,
°C
wind,
m/s
gust,
m/s
humid.,
%
clouds,
%
prec.,
mm/h
press.,
hPa
HPBL,
m
14 june, mon
mon1400:00+13nw488434 0.0 1012235
03:00+11nw49819 0.0 1014216
06:00+11nnw367945 0.0 1015202
09:00+15nw345988 0.0 1017418
12:00+17wsw335195 0.0 1018786
15:00+17sw344967 0.0 1017701
18:00+17ssw4552100 0.0 1016334
21:00+16s4869100 0.0 1014145
15 june, tue
tue1500:00+14ssw37745 0.0 1013107
03:00+15ssw6147165 0.0 1012396
06:00+15ssw71574100 0.0 1010542
09:00+15sw71272100 0.0 1009702
12:00+15sw71186100 1.1 1010813
15:00+18sw6966100 1.3 1010855
18:00+18w3658100 0.0 1010598
21:00+14e116923 0.0 101250
16 june, wed
wed1600:00+11wnw49710 0.0 1014253
03:00+10nw38780 0.0 1016171
06:00+11nw2574100 0.0 1017147
09:00+15wsw346062 0.0 1018392
12:00+17sw465467 0.0 1019654
15:00+18ssw4652100 0.0 1019694
18:00+19ssw685551 0.0 1018601
21:00+16w23705 0.0 101976
17 june, thu
thu1700:00+12ene237318 0.0 102147
03:00+13wsw117457 0.0 102120
06:00+14wsw35729 0.0 1022192
09:00+16sw35576 0.0 1023348
12:00+17ssw355432 0.0 1024453
15:00+19ssw355059 0.0 1024604
18:00+20ssw35524 0.0 1023466
21:00+18ssw34715 0.0 102344
18 june, fri
fri1800:00+15nw11645 0.0 102411
03:00+14wsw11635 0.0 102412
06:00+15sw11645 0.0 102420
09:00+18sw34590 0.0 1024235
12:00+19ssw36633 0.0 1024447
15:00+21ssw36600 0.0 1023861
18:00+22ssw34560 0.0 1022525
21:00+20s22670 0.0 102122